Location: Newark
(41.0400°S, 62.7845°W)
Time: 22:31:23
(UTC+00:00)

AIST 2D - Visible Passes

Search period start: 28 January 2022 00:00
Search period end: 07 February 2022 00:00
Orbit: 446 x 457 km, 97.1° (Epoch: 28 January)

Date Brightness Start Highest point End Pass type
(mag) Time Alt. Az. Time Alt. Az. Time Alt. Az.
28 Jan ? 00:37:36 17° ENE 00:39:36 29° ESE 00:42:39 10° S visible
28 Jan ? 02:11:17 13° WNW 02:12:29 15° W 02:14:30 10° WSW visible
29 Jan ? 01:36:32 28° NNW 01:37:50 40° W 01:41:08 10° SSW visible
30 Jan ? 01:01:47 29° NNE 01:03:21 62° ESE 01:06:47 10° S visible
31 Jan ? 00:27:01 14° ENE 00:29:02 22° ESE 00:31:44 10° SSE visible
31 Jan ? 02:00:42 17° WNW 02:01:45 20° W 02:04:21 10° SW visible
01 Feb ? 01:25:56 35° NNW 01:27:08 57° W 01:30:33 10° SSW visible
02 Feb ? 00:51:09 26° NE 00:52:39 44° ESE 00:55:58 10° S visible
03 Feb ? 00:16:22 11° ENE 00:18:21 16° ESE 00:20:36 10° SSE visible
03 Feb ? 01:50:02 23° WNW 01:50:56 26° W 01:53:55 10° SW visible
04 Feb ? 01:15:14 41° N 01:16:20 83° W 01:19:48 10° SSW visible
05 Feb ? 00:40:26 22° ENE 00:41:52 31° ESE 00:44:59 10° S visible
05 Feb ? 02:14:07 13° WNW 02:14:47 13° W 02:16:33 10° WSW visible
06 Feb ? 00:06:05 10° E 00:07:35 12° ESE 00:09:05 10° SE visible
06 Feb ? 01:39:17 32° NW 01:40:02 36° W 01:43:16 10° SSW visible
